[[{"header":{"parameterUnit":"m.s-1","parameterCategory":1,"la1":30.2991,"la2":30.254,"lo1":-89.0895,"lo2":-89.0444,"dy":0.0017,"dx":0.0017,"nx":28,"ny":28,"refTime":"2026-02-04T09:00:00:Z","depth":0,"parameterNumber":2,"parameterNumberName":"U-component_of_WINDS"},"data":[0,0,0,0,0,0,0,0,0,0,0,0,0,0,0,0,0,0,0,0,0,0,0,0,0,0,0,0,0,0,0,0,0,0,0,0,0,0,0,0,0,0,0,0,0,0,0,0,0,0,0,0,0,0,0,0,0,0,3.7161,3.7162,0,3.728,3.7282,3.7283,3.7221,3.7218,3.7215,3.7212,3.7336,3.7342,3.7348,0,0,0,0,0,0,0,0,0,0,0,0,0,3.6881,3.6886,3.7161,3.7162,3.7164,3.728,3.7282,3.7283,3.7222,3.7218,3.7214,3.721,3.7334,3.7341,3.7349,0,0,0,0,0,0,0,0,0,0,0,0,0,3.7002,3.6888,3.7161,3.7147,3.7147,3.728,3.7282,3.7284,3.7222,3.7218,3.7213,3.7208,3.7331,3.734,3.735,3.7503,0,0,3.7378,3.7382,0,0,0,0,0,0,0,0,3.6995,3.7012,3.7147,3.7148,3.7148,3.7231,3.7228,3.7357,3.7224,3.7194,3.7212,3.7206,3.7305,3.7316,3.7349,3.7509,3.7514,3.7379,3.7385,3.7389,3.7392,0,0,0,0,0,0,0,3.6987,3.7007,3.7208,3.715,3.715,3.7135,3.7147,3.7253,3.7275,3.7196,3.7192,3.7207,3.7304,3.734,3.7351,3.7516,3.7379,3.7387,3.7393,3.7397,3.7808,3.7813,0,0,0,0,0,0,3.6979,3.7,3.7204,3.7212,3.7058,3.7144,3.7158,3.7209,3.7273,3.7279,3.7211,3.7203,3.7326,3.7341,3.7356,3.7539,3.7389,3.7398,3.7403,3.7803,3.7809,3.7815,0,0,0,0,0,0,3.6973,3.6998,3.7199,3.7105,3.7129,3.7154,3.7213,3.7214,3.725,3.7284,3.7288,3.7243,3.7323,3.7342,3.7467,3.7543,3.7402,3.741,3.7796,3.7805,3.7812,3.7909,0,0,0,0,0,0,3.6965,3.6996,3.7054,3.7106,3.7135,3.7309,3.7217,3.722,3.7266,3.7258,3.7316,3.7321,3.7321,3.7453,3.7476,3.7553,3.7418,3.779,3.78,3.7809,3.7899,3.7919,3.7936,0,0,0,0,0,3.6955,3.7077,3.7057,3.7082,3.7208,3.7313,3.7329,3.7326,3.7272,3.7331,3.7354,3.7319,3.7531,3.7466,3.7492,3.7573,3.7785,3.7797,3.7809,3.789,3.7915,3.7936,0,0,0,0,0,0,3.7034,3.7084,3.7062,3.7204,3.7255,3.7302,3.7377,3.7352,3.7419,3.7409,3.7402,3.7416,3.7545,3.7571,3.7499,3.7725,3.765,3.7667,3.7703,3.7727,3.7745,3.7736,3.7426,0,0,0,0,0,3.7067,3.7148,3.7187,3.7309,3.7335,3.7352,3.7398,3.7391,3.7443,3.7464,3.7495,3.7548,3.7626,3.7678,3.7752,3.7902,3.7914,3.797,3.7989,3.8004,3.802,3.8101,3.8127,3.7854,3.7854,3.7853,0,0,3.7138,3.7175,3.7227,3.7326,3.7364,3.7448,3.737,3.7463,3.7525,3.7478,3.7597,3.7622,3.768,3.7819,3.7881,3.7844,3.8098,3.8019,3.8031,3.8039,3.8116,3.8142,3.8165,3.7862,3.786,3.7859,0,0,3.731,3.7346,3.7451,3.7491,3.7549,3.7559,3.7585,3.7636,3.7651,3.777,3.7737,3.7811,3.7946,3.7989,3.8028,3.8216,3.8187,3.824,3.8338,3.8418,3.8439,3.8458,3.8526,3.855,3.8255,3.8256,3.8256,0,3.739,3.7515,3.7508,3.7603,3.7648,3.7609,3.7715,3.7755,3.7835,3.7867,3.7824,3.7993,3.8029,3.8177,3.8223,3.8256,3.8285,3.8234,3.8437,3.8456,3.8473,3.8537,3.8563,3.8262,3.8261,3.8261,3.826,0,3.7611,3.7698,3.7776,3.7854,3.7908,3.8008,3.8017,3.8072,3.8061,3.8075,3.8198,3.824,3.8322,3.8356,3.8346,3.8503,3.8478,3.8437,3.8361,3.8506,3.8566,3.859,3.8271,3.8268,3.8267,3.8265,0,0,3.7836,3.7908,3.7937,3.7972,3.8033,3.8101,3.82,3.8279,3.8327,3.8383,3.8466,3.8581,3.8543,3.8588,3.8582,3.8652,3.8798,3.8602,3.8603,3.8637,3.8974,3.9005,3.9033,3.8779,3.8784,3.8788,3.8969,0,3.8012,3.8184,3.8181,3.8341,3.8421,3.8385,3.8471,3.8519,3.8535,3.8606,3.8624,3.8706,3.8649,3.8676,3.8744,3.8766,3.8866,3.8753,3.8857,3.8861,3.8844,3.9065,3.9098,3.9267,3.8992,3.8996,3.8999,0,3.8241,3.8304,3.8472,3.8521,3.8555,3.8633,3.8705,3.8773,3.8826,3.8833,3.8884,3.8867,3.8968,3.8889,3.9028,3.8951,3.8994,3.9011,3.9017,3.9027,3.8939,3.9081,3.9321,3.9346,3.9036,3.9033,3.903,0,3.8388,3.8516,3.8632,3.8663,3.8724,3.8779,3.8807,3.8855,3.8903,3.8967,3.8998,3.9072,3.9114,3.9172,3.9176,3.9118,3.9317,3.9238,3.9326,3.9326,3.9369,3.9367,3.962,3.9396,3.9396,3.9396,3.9395,0,3.8585,3.869,3.8699,3.8771,3.8887,3.8882,3.8997,3.902,3.9063,3.914,3.9113,3.9185,3.9186,3.926,3.9264,3.9378,3.9397,3.9406,3.9406,3.9409,3.9408,3.9437,3.9425,3.9402,3.9401,3.9399,3.9398,0,3.877,3.8781,3.8906,3.8952,3.8967,3.905,3.909,3.9159,3.9173,3.9269,3.9292,3.9314,3.9399,3.9409,3.9509,3.9511,3.965,3.9637,3.9632,3.963,3.9717,3.9709,3.9998,4.0036,3.9787,3.979,3.9792,0,3.8895,3.8974,3.903,3.9078,3.9109,3.9188,3.9236,3.9235,3.9287,3.9353,3.9414,3.9496,3.9563,3.9701,3.9726,3.9802,3.9792,3.9888,3.9803,3.9803,3.9793,3.9789,3.9797,3.9904,3.9907,3.9909,3.9911,0,3.9117,3.9118,3.9188,3.9261,3.9319,3.9377,3.9431,3.9472,3.9477,3.9537,3.9623,3.9675,3.9776,3.9859,3.9934,3.9963,3.9939,3.9937,3.9962,3.9966,3.9959,3.9964,3.9677,3.9931,3.9929,3.9927,3.9926,3.9926,3.9276,3.9345,3.9394,3.9473,3.9513,3.9564,3.9631,3.9653,3.9725,3.9807,3.9801,3.9897,3.9948,4.0046,4.0081,4.0156,4.0124,4.016,4.0169,4.0178,4.0187,3.9947,4.017,4.0169,4.0169,4.0168,4.0168,0,3.9496,3.9526,3.9599,3.9675,3.9737,3.9707,3.9765,3.982,3.9904,3.9954,4.0019,4.0119,4.0198,4.023,4.0308,4.0362,4.0353,4.0383,4.0379,4.0386,4.021,4.0182,4.0389,4.0389,4.0389,4.0389,4.0389,4.0389,3.9619,3.9733,3.974,3.9874,3.9903,3.9996,4.0032,4.0079,4.0118,4.023,4.0296,4.0315,4.0358,4.0439,4.0511,4.0518,4.0548,4.0583,4.0586,4.0421,4.0399,4.0377,4.035,4.059,4.059,4.0756,4.0757,4.0758]},{"header":{"parameterUnit":"m.s-1","parameterCategory":1,"la1":30.2991,"la2":30.254,"lo1":-89.0895,"lo2":-89.0444,"dy":0.0017,"dx":0.0017,"nx":28,"ny":28,"refTime":"2026-02-04T09:00:00:Z","depth":0,"parameterNumber":3,"parameterNumberName":"V-component_of_WINDS"},"data":[0,0,0,0,0,0,0,0,0,0,0,0,0,0,0,0,0,0,0,0,0,0,0,0,0,0,0,0,0,0,0,0,0,0,0,0,0,0,0,0,0,0,0,0,0,0,0,0,0,0,0,0,0,0,0,0,0,0,-0.9689,-0.969,0,-0.9838,-0.9839,-0.9841,-0.9869,-0.9868,-0.9867,-0.9865,-1.0022,-1.0027,-1.0032,0,0,0,0,0,0,0,0,0,0,0,0,0,-0.9433,-0.9437,-0.9689,-0.969,-0.9692,-0.9837,-0.9839,-0.9841,-0.9869,-0.9868,-0.9866,-0.9865,-1.002,-1.0026,-1.0032,0,0,0,0,0,0,0,0,0,0,0,0,0,-0.9559,-0.9439,-0.9688,-0.9724,-0.9728,-0.9837,-0.9839,-0.9842,-0.987,-0.9868,-0.9866,-0.9864,-1.0018,-1.0025,-1.0033,-1.0118,0,0,-1.0057,-1.0061,0,0,0,0,0,0,0,0,-0.9552,-0.9568,-0.9717,-0.9721,-0.9727,-0.9833,-0.9806,-0.9935,-0.987,-0.9816,-0.9865,-0.9863,-0.996,-0.9973,-1.0005,-1.0126,-1.0132,-1.0058,-1.0063,-1.0066,-1.0069,0,0,0,0,0,0,0,-0.9543,-0.9562,-0.9748,-0.9719,-0.9725,-0.9733,-0.9749,-0.9831,-0.9897,-0.9821,-0.9823,-0.984,-0.9963,-0.9997,-1.0009,-1.0135,-1.0058,-1.0065,-1.007,-1.0073,-1.0334,-1.0336,0,0,0,0,0,0,-0.9527,-0.9555,-0.9743,-0.9752,-0.9633,-0.9739,-0.9757,-0.9801,-0.9896,-0.9909,-0.9841,-0.9841,-0.9985,-1.0,-1.0014,-1.0121,-1.0066,-1.0074,-1.0078,-1.0332,-1.0334,-1.0337,0,0,0,0,0,0,-0.9522,-0.9544,-0.9737,-0.9654,-0.9679,-0.9746,-0.9794,-0.9805,-0.9839,-0.9911,-0.9924,-0.9864,-0.9984,-1.0003,-1.0092,-1.0127,-1.0077,-1.0084,-1.0329,-1.0333,-1.0336,-1.0334,0,0,0,0,0,0,-0.9514,-0.9542,-0.9574,-0.9655,-0.9684,-0.9811,-0.9796,-0.9809,-0.9852,-0.9853,-0.9936,-0.9948,-0.9984,-1.008,-1.01,-1.0137,-1.0091,-1.0326,-1.0331,-1.0335,-1.0332,-1.0337,-1.0342,0,0,0,0,0,-0.9505,-0.9568,-0.9575,-0.9598,-0.9725,-0.9813,-0.983,-0.9868,-0.9855,-0.9888,-0.9935,-0.9946,-1.012,-1.0089,-1.0112,-1.0151,-1.0324,-1.0329,-1.0334,-1.0329,-1.0336,-1.0342,0,0,0,0,0,0,-0.9491,-0.9579,-0.9588,-0.9679,-0.9738,-0.9817,-0.9861,-0.9874,-0.9939,-0.9937,-0.9984,-1.0003,-1.0089,-1.0129,-1.0094,-1.0239,-1.0221,-1.0231,-1.021,-1.0217,-1.0222,-1.0211,-1.0097,0,0,0,0,0,-0.9498,-0.9561,-0.9635,-0.9708,-0.9737,-0.9794,-0.9834,-0.9858,-0.9922,-0.9948,-1.0001,-1.0063,-1.0132,-1.0177,-1.0244,-1.0337,-1.0357,-1.0376,-1.0381,-1.0385,-1.0393,-1.0447,-1.0456,-1.0353,-1.0353,-1.0353,0,0,-0.9514,-0.957,-0.9607,-0.9707,-0.9755,-0.9821,-0.9815,-0.9884,-0.9934,-0.9959,-1.0046,-1.0087,-1.016,-1.0252,-1.0295,-1.0288,-1.0426,-1.0391,-1.0394,-1.04,-1.0453,-1.0462,-1.0471,-1.0356,-1.0356,-1.0355,0,0,-0.9576,-0.9624,-0.9691,-0.974,-0.9813,-0.985,-0.9866,-0.9944,-0.9972,-1.006,-1.008,-1.0141,-1.0258,-1.0309,-1.0351,-1.0433,-1.0446,-1.0454,-1.0481,-1.0533,-1.0541,-1.0549,-1.0579,-1.0589,-1.0462,-1.0462,-1.0462,0,-0.9587,-0.9685,-0.9724,-0.9792,-0.9836,-0.986,-0.9929,-0.9975,-1.0067,-1.0098,-1.0088,-1.0236,-1.0287,-1.0392,-1.0412,-1.0444,-1.0465,-1.0445,-1.0537,-1.0544,-1.0552,-1.0582,-1.0593,-1.0462,-1.0462,-1.0462,-1.0462,0,-0.9695,-0.9763,-0.9808,-0.9895,-0.9944,-1.0013,-1.0063,-1.0108,-1.0129,-1.0167,-1.0257,-1.0319,-1.04,-1.0426,-1.0447,-1.0534,-1.0528,-1.0527,-1.051,-1.0562,-1.0591,-1.0602,-1.0463,-1.0463,-1.0463,-1.0463,0,0,-0.9753,-0.9861,-0.9877,-0.9917,-1.0,-1.0054,-1.0124,-1.0202,-1.024,-1.0303,-1.0364,-1.0463,-1.0463,-1.051,-1.0537,-1.0582,-1.0645,-1.0576,-1.0578,-1.0587,-1.0746,-1.0747,-1.0759,-1.0653,-1.0656,-1.0658,-1.074,0,-0.9826,-0.995,-0.9987,-1.0092,-1.0156,-1.018,-1.0241,-1.03,-1.0338,-1.0399,-1.0442,-1.0511,-1.0505,-1.0534,-1.058,-1.0627,-1.0677,-1.0622,-1.0712,-1.0715,-1.0694,-1.0774,-1.0775,-1.085,-1.0752,-1.0753,-1.0755,0,-0.9928,-0.9992,-1.0102,-1.0178,-1.0206,-1.026,-1.0335,-1.0392,-1.046,-1.0485,-1.0537,-1.0561,-1.0636,-1.0614,-1.072,-1.0681,-1.072,-1.075,-1.0753,-1.0764,-1.0738,-1.0788,-1.0875,-1.0886,-1.0773,-1.0771,-1.077,0,-0.996,-1.0074,-1.0155,-1.0189,-1.0278,-1.0316,-1.0355,-1.0421,-1.0465,-1.0531,-1.0561,-1.0635,-1.0676,-1.0734,-1.0777,-1.0757,-1.0879,-1.0861,-1.0903,-1.0902,-1.0929,-1.0927,-1.1024,-1.0952,-1.0952,-1.0952,-1.0952,0,-1.0039,-1.0106,-1.0171,-1.0221,-1.0297,-1.0339,-1.0414,-1.0455,-1.0513,-1.0573,-1.0599,-1.0654,-1.0708,-1.0771,-1.0806,-1.0889,-1.0907,-1.093,-1.0939,-1.0929,-1.0926,-1.0956,-1.0952,-1.0955,-1.0954,-1.0954,-1.0953,0,-1.0088,-1.0134,-1.0224,-1.0301,-1.0322,-1.0375,-1.0442,-1.0493,-1.0532,-1.0607,-1.0627,-1.0689,-1.0765,-1.0814,-1.0911,-1.0934,-1.1025,-1.1032,-1.1002,-1.1006,-1.1046,-1.1042,-1.1167,-1.1186,-1.11,-1.1101,-1.1102,0,-1.0135,-1.0187,-1.027,-1.0311,-1.035,-1.0416,-1.0461,-1.0506,-1.0552,-1.0633,-1.0674,-1.0751,-1.0815,-1.0936,-1.0991,-1.1065,-1.1075,-1.1113,-1.1086,-1.1074,-1.1077,-1.1073,-1.1079,-1.1118,-1.1118,-1.1119,-1.112,0,-1.0215,-1.0235,-1.0298,-1.0371,-1.0424,-1.0483,-1.0542,-1.0575,-1.0629,-1.0681,-1.0758,-1.0808,-1.0906,-1.0983,-1.1063,-1.1106,-1.1123,-1.1127,-1.1142,-1.1132,-1.1113,-1.1125,-1.1015,-1.1125,-1.1124,-1.1124,-1.1123,-1.1123,-1.0265,-1.0313,-1.0378,-1.0449,-1.0498,-1.0553,-1.0604,-1.0649,-1.0714,-1.0797,-1.0819,-1.09,-1.0967,-1.1076,-1.112,-1.1185,-1.118,-1.12,-1.1206,-1.121,-1.1211,-1.1101,-1.12,-1.12,-1.1199,-1.1199,-1.1199,0,-1.0347,-1.039,-1.0455,-1.0536,-1.0592,-1.0601,-1.0667,-1.0714,-1.0785,-1.0845,-1.0907,-1.0997,-1.1072,-1.1132,-1.121,-1.1251,-1.126,-1.127,-1.1268,-1.1277,-1.121,-1.1191,-1.126,-1.126,-1.126,-1.126,-1.126,-1.126,-1.0396,-1.0478,-1.0506,-1.0612,-1.0656,-1.0734,-1.0771,-1.0823,-1.0871,-1.0969,-1.1031,-1.1069,-1.1131,-1.1213,-1.1283,-1.1299,-1.1327,-1.1334,-1.1352,-1.1289,-1.1282,-1.1276,-1.1258,-1.134,-1.134,-1.1414,-1.1415,-1.1415]}]]